Date,TemperatureHighF,TemperatureAvgF,TemperatureLowF,DewpointHighF,DewpointAvgF,DewpointLowF,HumidityHigh,HumidityAvg,HumidityLow,PressureMaxIn,PressureMinIn,WindSpeedMaxMPH,WindSpeedAvgMPH,GustSpeedMaxMPH,PrecipitationSumIn
2013-4-9,27.8,27.4,27.0,26.1,25.8,25.5,94,94,93,30.11,30.08,0,0,0,0.02
2013-4-10,31.0,30.0,27.8,30.0,28.6,26.0,96,95,93,30.15,29.89,0,0,0,0.00
2013-5-19,69.6,67.2,64.5,63.1,61.3,58.8,92,82,72,29.58,29.42,0,0,0,0.40
2013-5-20,66.4,60.1,56.7,62.3,56.3,51.5,96,88,59,29.47,29.39,0,0,0,0.02
2013-5-21,60.9,54.1,51.7,54.8,52.0,50.1,96,93,78,29.67,29.45,0,0,0,0.07
2013-5-22,53.2,51.1,48.5,51.5,49.4,47.4,97,94,87,29.90,29.66,0,0,0,0.15
2013-5-29,79.6,73.3,65.3,68.1,65.0,60.9,95,76,56,29.55,29.40,0,0,0,0.13
2013-5-30,76.3,66.8,61.6,64.4,60.0,49.8,96,80,52,29.42,29.34,14,1,17,0.02
2013-5-31,69.6,61.9,55.9,53.1,49.4,46.5,77,64,49,29.52,29.40,30,11,31,0.00
2013-6-1,59.8,54.9,51.7,59.0,50.5,42.6,98,85,71,30.02,29.52,22,7,26,0.04
2013-6-2,66.9,57.9,49.6,45.9,42.2,37.4,81,58,35,30.10,29.95,13,3,17,0.00
2013-6-3,73.7,61.9,47.7,49.4,44.4,40.8,82,56,31,29.98,29.74,28,7,32,0.00
2013-6-4,69.3,62.1,56.9,60.9,56.5,-99.9,97,84,61,29.99,29.75,18,4,25,0.38
2013-6-5,63.2,59.4,55.1,54.5,50.5,46.8,85,73,64,29.99,29.93,11,3,14,0.00
2013-6-6,65.2,62.5,57.3,53.4,51.2,49.2,82,67,57,29.99,29.95,12,4,13,0.38
2013-6-7,70.4,63.0,45.8,53.4,49.0,44.5,97,62,45,30.01,29.80,11,2,14,0.00
2013-6-8,61.0,57.8,53.6,60.7,54.7,47.9,100,90,67,29.80,29.61,19,7,22,1.51
2013-6-9,65.6,62.2,57.0,61.6,59.2,54.7,100,90,78,29.82,29.52,13,5,20,0.14
2013-6-10,75.1,64.2,49.8,62.5,57.4,48.7,100,80,56,29.85,29.72,13,4,16,0.00
2013-6-11,87.0,75.4,64.2,65.8,62.3,56.7,93,67,37,29.80,29.63,21,5,27,0.00
2013-6-12,72.3,67.0,59.8,64.9,58.5,51.1,87,75,63,30.00,29.50,24,6,28,0.00
2013-6-13,78.1,67.8,55.1,54.6,52.0,47.2,90,60,36,30.08,29.91,14,3,14,0.00
2013-6-14,82.2,73.2,64.2,68.2,60.9,53.4,79,66,54,29.96,29.67,31,8,33,0.00
2013-6-15,72.8,68.0,64.5,65.6,63.4,60.4,96,86,68,29.94,29.72,20,4,27,0.36
2013-6-16,79.6,74.2,65.0,59.3,54.4,47.3,77,52,34,29.93,29.84,16,4,19,0.00
2013-6-17,80.9,71.8,62.1,58.3,53.8,47.6,80,55,33,29.96,29.88,11,2,16,0.00
2013-6-18,82.4,70.2,58.3,58.8,53.9,47.9,82,59,33,30.00,29.91,11,2,0,0.00
2013-6-19,85.9,81.9,75.1,63.9,61.6,57.4,63,51,41,29.85,29.75,19,9,22,0.00
2013-6-20,75.1,71.7,69.3,63.6,62.4,61.4,80,73,63,29.79,29.77,17,8,18,0.00
2013-6-22,76.0,72.2,66.0,66.9,64.9,62.8,97,78,65,29.85,29.62,19,5,21,0.17
2013-6-23,78.8,71.9,63.5,67.4,62.5,58.5,96,74,51,29.78,29.54,21,5,25,0.08
2013-6-25,83.8,82.6,81.2,69.5,68.7,67.2,67,63,58,29.59,29.57,11,4,0,0.00
2013-6-29,68.9,67.2,65.6,55.7,54.7,53.7,66,64,62,29.93,29.90,3,1,0,0.00
2013-6-30,76.5,68.0,58.4,55.2,50.1,42.4,80,56,30,30.10,29.93,11,2,14,0.00
2013-7-1,82.8,71.2,56.7,58.3,51.9,46.9,83,54,30,30.16,30.07,11,2,13,0.00
2013-7-2,84.7,71.7,61.3,59.8,54.2,46.0,81,57,27,30.09,29.99,14,2,14,0.00
2013-7-3,84.7,72.4,59.0,59.7,56.1,51.9,88,59,33,29.99,29.83,13,2,17,0.00
2013-7-4,87.4,75.8,62.3,58.6,56.1,53.0,76,53,33,29.84,29.71,24,8,27,0.00
2013-7-5,87.6,78.5,69.1,63.9,59.9,54.7,65,54,42,29.74,29.67,19,8,20,0.00
2013-7-6,88.0,79.8,73.3,67.6,63.2,59.1,65,57,47,29.71,29.64,19,7,25,0.00
2013-7-7,88.0,77.9,69.6,72.3,66.9,63.1,90,70,53,29.85,29.69,21,3,21,0.13
2013-7-8,89.9,78.9,66.3,71.4,66.9,61.7,89,69,46,29.90,29.77,12,3,12,0.00
2013-7-9,84.7,78.0,68.1,71.5,67.3,62.6,94,71,52,29.91,29.72,13,3,16,0.15
2013-7-10,80.1,71.8,63.1,65.3,57.4,47.1,92,64,33,30.05,29.91,11,3,0,0.00
2013-7-11,84.3,77.0,67.1,63.0,59.2,54.1,67,55,44,29.98,29.82,22,8,25,0.00
2013-7-12,90.1,79.1,67.6,71.2,65.1,58.5,76,63,50,29.85,29.71,29,11,29,0.00
2013-7-13,86.7,80.3,74.0,73.3,69.4,64.2,83,70,63,29.85,29.77,16,6,18,0.00
2013-7-14,77.2,71.9,67.1,69.6,65.5,60.9,88,80,71,30.09,29.84,17,4,19,0.03
2013-7-15,85.5,76.5,64.7,68.3,63.3,-99.9,92,68,42,30.12,30.02,17,4,20,0.00
2013-7-16,87.0,78.9,69.6,67.5,64.3,59.3,90,63,40,30.12,30.04,18,6,27,0.00
2013-7-17,90.5,80.8,71.3,68.1,64.9,-99.9,79,61,43,30.17,30.01,19,6,19,0.00
2013-7-18,91.0,82.5,74.0,69.1,67.2,65.7,77,61,44,30.01,29.72,24,8,26,0.00
2013-7-19,84.9,78.4,68.1,68.7,61.8,52.1,83,59,34,29.86,29.72,13,3,16,0.00
2013-7-20,84.5,72.2,63.1,68.1,61.8,-99.9,94,73,44,29.95,29.79,14,2,19,0.15
2013-7-21,83.8,73.4,66.8,66.0,63.3,56.5,89,72,54,29.84,29.73,11,3,0,0.01
2013-8-8,77.9,71.7,66.9,65.7,63.7,60.6,91,76,64,29.95,29.90,16,4,20,0.03
2013-8-9,79.2,69.3,58.7,64.2,57.5,52.6,98,70,42,30.08,29.95,8,2,12,0.00
2013-8-10,73.2,66.4,60.1,65.4,59.3,52.5,96,78,63,30.13,29.98,10,2,0,0.32
2013-8-11,77.2,71.2,63.2,68.5,64.7,61.4,98,81,64,30.02,29.93,11,2,13,0.73
2013-8-12,78.1,69.3,60.9,63.9,59.8,55.5,94,74,53,30.05,29.97,8,2,0,0.00
2013-8-13,75.8,66.0,56.6,59.7,54.1,45.0,94,68,42,30.13,30.04,11,2,12,0.00
2013-8-14,61.6,60.0,59.0,52.1,51.2,50.4,75,73,70,30.13,30.11,8,3,0,0.00
2013-9-9,76.5,76.1,75.4,65.8,65.6,65.4,72,70,69,29.72,29.70,7,2,0,0.15
2013-9-29,75.8,66.6,58.1,45.7,44.6,43.4,59,46,32,29.88,29.78,12,6,0,0.00
2013-12-15,9.2,8.1,8.3,2.6,-16.8,-99.9,76,70,73,30.11,30.09,0,-999,0,0.00